Wind_Speed
14 14 14 18 24 25 24 21 18 19 16 13 17 17 20 24 28 33 30 25 28 28 26 8 14 12 13 16 19 20 19 19 20 21 21 21 22 23 23 22 22 22 22 23 22 21 22 22 19
15 16 15 19 25 25 26 23 21 20 18 18 17 18 22 27 31 34 36 29 28 28 24 23 16 15 17 18 18 19 21 22 22 22 22 23 24 24 24 24 24 25 25 25 24 24 23 23 23
17 18 18 22 27 25 25 25 24 23 20 18 17 19 23 29 30 35 37 33 29 29 27 25 17 17 19 19 19 20 22 23 23 23 23 23 23 23 23 24 24 25 25 25 25 25 26 25 25
20 19 20 24 28 27 25 27 25 25 24 21 19 23 26 29 28 32 33 33 28 26 24 24 20 21 23 22 21 22 22 23 23 23 22 22 22 23 23 24 24 24 25 26 26 26 25 26 26
22 21 22 27 29 28 28 30 26 27 26 26 23 24 26 26 26 28 27 29 30 25 23 23 23 24 25 25 25 23 23 23 23 22 21 21 20 20 21 21 22 23 23 24 25 26 25 25 26
25 23 22 28 31 27 29 30 30 29 29 26 28 27 26 26 24 27 30 29 28 28 25 23 25 26 27 27 26 25 24 22 21 19 19 19 19 20 21 22 22 22 22 23 24 24 25 26 26
28 27 26 28 32 29 30 32 32 29 30 30 26 25 25 26 27 27 28 28 29 28 28 29 28 28 27 27 27 26 24 21 20 20 20 20 21 22 22 23 24 24 24 25 25 25 26 26 26
30 27 28 30 36 30 34 33 31 29 31 28 20 22 25 25 23 27 29 28 29 30 30 30 30 30 29 29 27 26 25 22 22 23 24 25 26 27 27 28 29 30 30 31 31 30 31 32 31
31 28 29 33 34 32 33 34 33 28 26 25 23 23 22 22 24 28 32 31 31 31 30 29 29 29 29 27 26 24 22 25 28 29 30 30 31 32 31 31 31 31 32 33 33 33 33 34 35
33 30 30 32 30 32 32 33 30 27 26 29 28 26 26 24 24 29 32 32 30 30 29 29 28 27 26 25 24 26 28 31 32 34 35 35 35 34 32 32 34 35 36 37 37 38 38 38 37
32 29 31 29 27 27 31 31 33 33 31 32 33 31 30 31 28 29 29 30 29 28 28 27 27 26 25 27 30 33 34 36 36 37 38 38 37 36 37 39 40 40 40 41 42 43 42 41 41
30 30 32 29 28 29 33 35 36 36 33 32 33 29 30 31 31 29 28 29 29 29 29 28 28 28 30 33 36 38 39 39 39 38 37 38 40 43 45 44 44 44 44 44 45 47 48 46 46
34 30 31 31 29 33 37 39 37 36 32 33 33 32 32 32 30 28 27 29 31 31 30 30 31 33 35 38 41 42 43 41 40 40 41 44 47 48 50 51 50 50 50 51 51 52 52 52 54
33 29 31 36 32 38 38 37 38 35 32 31 33 32 30 28 29 30 30 31 31 32 33 34 37 38 40 42 43 43 43 43 44 44 48 51 53 54 54 54 55 56 57 58 59 59 58 59 61
33 30 33 33 33 32 34 39 36 34 31 31 32 32 30 27 29 30 31 32 32 33 34 36 38 40 41 42 43 44 45 48 50 51 54 56 58 59 60 62 63 64 65 65 66 68 69 69 71
35 34 33 30 33 32 35 34 34 33 32 32 32 33 31 26 28 29 29 31 33 34 37 39 41 42 43 45 47 49 51 53 54 56 59 61 62 64 64 64 64 67 71 74 75 76 77 78 78
36 35 36 32 35 37 36 30 30 32 32 33 35 34 30 29 29 31 32 32 35 39 42 43 44 46 48 49 51 53 56 58 59 62 64 65 66 68 68 70 74 75 75 75 77 78 80 82 84
35 41 40 35 35 40 38 29 30 33 34 33 34 32 30 32 32 33 34 35 37 40 41 43 46 48 50 51 54 57 59 61 63 65 67 69 71 72 73 75 75 76 79 82 85 87 89 90 91
41 43 40 34 33 41 37 34 32 32 35 29 30 31 31 31 31 35 37 40 42 43 44 46 48 50 52 54 56 59 60 62 66 69 70 70 71 73 74 76 77 81 84 89 92 94 94 93 91
42 43 40 34 34 38 37 37 35 36 33 30 34 32 31 33 32 36 40 43 47 47 47 49 50 52 52 52 54 58 61 64 67 67 68 70 72 73 74 77 80 84 88 87 84 76 74 71 74
42 43 39 36 36 39 40 41 41 38 34 33 29 31 33 34 35 40 43 44 45 45 46 47 50 52 52 52 57 61 63 64 65 66 68 70 71 72 74 77 76 81 79 69 67 66 66 64 63
46 42 40 38 38 41 43 45 40 40 37 35 36 35 37 38 40 43 42 43 44 47 47 47 48 48 49 56 60 62 62 61 63 65 66 68 70 72 74 68 67 71 64 63 51 46 43 40 40
46 40 40 39 41 43 44 47 42 41 40 37 35 37 40 40 42 43 43 42 46 48 48 48 49 50 55 59 62 63 62 63 64 65 67 68 70 71 65 57 60 64 61 46 38 34 31 29 31
46 44 44 44 43 46 45 46 41 44 40 41 41 42 42 43 44 43 42 43 47 49 50 50 51 55 61 62 63 62 63 63 63 65 65 67 65 60 55 53 53 55 44 37 35 33 31 31 32
43 42 44 47 49 45 45 48 41 47 46 44 45 46 46 49 48 46 41 45 47 52 50 51 54 59 63 63 64 62 61 62 63 63 64 62 55 48 49 52 39 37 37 33 29 27 27 28 29
43 44 46 49 49 45 48 51 46 47 50 54 54 52 52 53 51 46 45 45 45 49 51 54 56 63 62 64 60 59 60 60 60 61 57 49 45 42 48 42 39 35 31 29 28 27 27 28 25
46 49 48 50 52 52 54 52 49 49 50 53 55 55 56 53 52 46 44 44 44 49 53 56 62 61 62 56 56 56 57 57 57 52 47 41 41 40 44 39 37 35 32 27 25 24 24 24 21
53 47 51 54 56 57 56 56 54 50 51 54 54 54 53 53 51 45 43 43 48 50 55 61 61 58 52 53 53 53 53 52 49 43 37 36 36 37 34 26 27 29 28 25 24 22 21 20 22
47 49 52 52 54 54 53 52 52 55 58 56 56 52 48 48 45 41 42 46 49 56 59 58 53 47 49 50 50 50 49 47 44 38 32 32 33 29 23 22 24 27 28 26 22 19 17 19 20
45 47 52 56 59 59 59 57 53 52 51 48 45 48 47 40 39 42 45 49 55 51 50 48 46 46 47 47 47 47 48 44 39 33 29 29 28 21 19 21 24 25 26 28 25 22 18 18 16
Wind_Direction
289 286 286 284 281 285 293 297 298 292 299 268 284 285 288 289 294 301 304 290 289 291 313 240 240 259 270 274 279 287 294 294 294 294 295 294 292 290 289 286 287 285 287 288 288 289 289 288 286
283 286 284 281 280 288 295 297 294 288 287 283 280 278 282 284 291 299 304 293 282 284 293 294 281 260 265 271 279 288 292 290 291 293 292 292 290 288 287 286 285 285 286 288 289 291 288 286 286
280 279 276 275 276 283 286 289 286 285 283 273 261 261 268 272 281 290 299 294 287 283 278 281 280 278 279 280 286 285 288 292 294 293 291 289 287 286 286 285 283 283 283 284 286 287 289 288 286
283 281 277 275 273 281 280 279 282 282 280 274 264 263 270 278 282 287 300 294 286 280 278 281 282 285 286 288 288 289 289 290 288 289 289 288 288 288 288 287 286 285 283 283 282 282 286 287 289
280 280 280 276 275 276 279 282 281 280 281 277 270 269 272 278 286 290 291 290 285 283 283 284 284 283 286 292 293 291 290 290 289 288 287 286 287 286 287 288 288 287 285 286 287 288 287 286 286
278 276 275 274 276 274 276 279 280 281 283 285 290 289 285 287 288 289 289 291 292 291 288 282 281 285 288 291 292 293 292 289 287 288 288 287 285 283 285 288 289 287 286 285 288 290 291 292 289
277 275 271 269 270 272 271 271 275 281 288 294 295 293 298 304 296 290 288 285 284 277 277 280 284 287 289 290 290 292 289 287 289 289 287 287 286 286 286 286 286 287 288 287 286 286 289 290 291
272 272 273 267 268 267 271 275 277 278 283 285 291 288 289 290 291 289 282 278 277 277 277 279 282 284 288 291 292 290 287 285 288 288 288 288 287 287 288 288 287 288 287 285 285 285 285 286 285
272 270 268 264 266 271 272 273 273 277 284 289 290 284 286 282 278 278 279 278 278 279 279 279 283 287 290 288 287 287 287 287 289 289 288 287 288 287 287 287 287 289 289 289 288 286 284 284 284
269 268 264 263 264 268 269 271 277 279 284 286 279 277 283 286 283 278 282 286 290 289 288 288 288 288 287 285 284 286 286 286 288 290 290 289 289 289 288 289 288 288 287 287 287 288 288 287 286
270 266 260 264 264 266 268 275 278 280 282 282 281 281 281 282 281 279 282 284 286 287 288 289 288 286 281 280 283 287 288 289 290 292 292 292 291 290 289 289 288 287 285 285 286 285 284 283 284
266 257 259 256 260 264 270 274 276 279 282 280 281 283 284 283 281 278 277 280 283 285 285 285 284 282 280 281 284 288 289 290 292 292 291 292 290 289 287 285 282 280 278 279 280 280 280 278 282
255 253 259 260 266 270 275 276 271 270 273 273 274 275 277 280 278 274 270 273 277 279 278 278 278 279 280 284 287 289 291 291 290 289 288 289 289 287 286 284 282 280 279 279 279 278 276 275 281
254 253 258 261 271 269 271 270 263 268 270 269 268 271 273 272 268 265 267 273 274 278 280 281 281 282 282 283 284 286 287 287 286 285 286 288 289 289 288 287 285 282 281 281 281 279 275 272 275
251 255 260 265 270 263 263 265 273 275 274 272 272 273 272 267 263 266 271 276 277 277 278 279 282 284 285 285 286 288 289 288 287 286 288 291 292 292 290 288 286 284 282 279 278 276 275 272 273
250 255 263 272 265 261 256 259 265 267 269 270 272 272 273 270 270 273 279 284 286 286 288 289 289 288 288 289 291 291 291 292 293 292 291 291 290 289 288 287 286 284 281 279 278 277 276 273 271
250 259 265 258 260 262 258 260 260 261 264 266 268 270 272 268 266 272 280 287 292 293 292 291 289 289 289 291 292 292 292 292 292 291 291 291 290 290 287 286 286 286 284 281 279 276 275 273 271
250 252 262 265 259 260 263 259 258 261 260 259 264 268 266 263 265 273 282 286 287 289 290 289 288 288 289 290 290 290 289 288 289 290 292 294 294 293 293 293 293 292 289 287 284 281 279 277 274
245 254 262 264 260 264 266 262 256 257 258 265 266 259 257 259 264 276 288 294 293 292 289 286 285 285 286 287 288 288 291 293 295 296 298 298 298 297 296 295 295 294 292 289 286 286 284 282 279
250 256 262 262 263 261 263 264 258 256 260 259 253 249 249 254 273 283 285 285 289 291 290 287 284 284 287 290 291 295 298 299 300 300 300 300 299 300 302 302 301 300 299 297 295 292 285 279 275
256 259 264 262 257 257 257 256 261 264 256 252 249 250 259 272 280 284 286 288 290 289 288 288 287 287 288 290 295 298 301 303 303 305 307 308 308 306 306 306 305 303 301 302 296 289 280 275 269
258 262 262 257 254 258 261 262 259 258 257 252 253 264 273 276 281 287 291 289 289 288 289 288 286 287 291 300 303 307 306 307 308 310 309 309 309 308 309 309 305 306 309 307 301 299 295 286 269
257 257 256 251 251 250 251 259 265 265 270 273 272 269 271 281 288 289 285 286 284 287 289 290 294 299 301 306 308 308 309 310 311 311 311 310 309 310 311 311 310 311 310 307 308 307 303 294 280
253 250 251 251 249 251 254 256 266 270 272 269 271 277 282 285 286 285 284 284 285 287 288 292 299 299 304 307 308 309 311 312 311 310 310 310 312 311 312 312 308 307 311 313 313 310 305 299 290
248 251 254 253 252 259 255 256 271 270 269 271 273 273 275 279 283 284 282 280 283 284 288 294 295 298 303 306 309 310 310 310 309 310 311 312 310 312 311 311 316 318 312 310 314 316 314 306 294
251 251 254 258 261 264 260 259 260 265 270 272 272 272 273 275 279 279 275 275 279 286 292 291 291 296 304 306 307 308 308 308 309 310 311 308 311 311 318 317 331 330 316 316 319 319 319 322 307
246 250 256 258 260 261 261 262 266 267 268 269 269 269 271 275 278 275 273 277 277 280 287 287 292 300 302 304 306 305 306 307 309 310 307 310 312 315 321 327 327 336 330 326 329 330 330 329 326
247 254 253 254 258 261 264 265 268 271 273 273 273 272 274 278 279 278 278 276 276 282 285 292 295 297 301 302 303 304 305 308 310 308 307 311 311 313 321 333 343 352 340 330 328 336 341 337 340
248 251 252 252 255 262 264 265 269 274 276 275 275 274 277 278 277 277 276 277 281 285 286 289 295 298 299 300 301 303 307 311 309 306 306 308 309 314 328 347 351 356 358 350 342 341 349 355 356
248 250 252 253 257 260 264 265 270 275 277 271 269 275 278 280 274 274 277 278 280 285 290 293 295 298 300 300 302 307 310 308 305 304 303 303 311 309 327 342 342 350 356 357 7 6 354 356 355
Height
5875 5874 5873 5871 5871 5868 5868 5869 5866 5865 5866 5866 5864 5862 5860 5859 5860 5862 5857 5853 5853 5855 5853 5854 5853 5852 5851 5850 5851 5852 5851 5850 5849 5849 5847 5845 5844 5843 5842 5841 5839 5837 5835 5834 5832 5832 5831 5830 5828
5873 5872 5871 5868 5865 5865 5865 5866 5864 5863 5864 5863 5861 5860 5857 5856 5856 5856 5852 5852 5851 5849 5850 5850 5850 5850 5849 5850 5849 5848 5847 5847 5846 5845 5844 5843 5841 5840 5838 5837 5835 5833 5831 5830 5829 5828 5827 5825 5825
5870 5869 5869 5865 5861 5862 5863 5862 5861 5861 5861 5861 5860 5858 5856 5855 5856 5854 5850 5845 5846 5845 5847 5847 5847 5846 5848 5847 5845 5845 5844 5843 5842 5842 5841 5840 5838 5836 5834 5833 5831 5829 5828 5826 5826 5824 5823 5822 5821
5866 5867 5866 5862 5858 5858 5860 5858 5858 5857 5857 5858 5857 5855 5853 5851 5852 5850 5846 5842 5841 5842 5842 5841 5840 5840 5841 5842 5842 5840 5839 5839 5838 5838 5836 5835 5834 5833 5831 5829 5828 5826 5824 5823 5821 5820 5819 5819 5818
5861 5861 5861 5858 5855 5855 5854 5852 5854 5853 5853 5854 5853 5852 5849 5847 5845 5843 5842 5840 5838 5838 5837 5836 5835 5836 5837 5836 5836 5836 5835 5835 5834 5833 5832 5831 5830 5828 5826 5824 5823 5822 5821 5820 5818 5817 5815 5815 5814
5857 5857 5856 5853 5851 5852 5851 5849 5847 5848 5847 5848 5847 5846 5845 5842 5842 5839 5836 5834 5831 5830 5829 5830 5831 5831 5831 5831 5831 5832 5831 5830 5830 5829 5828 5826 5826 5825 5823 5821 5819 5818 5817 5816 5814 5813 5812 5811 5810
5851 5852 5851 5847 5845 5846 5845 5844 5844 5844 5843 5844 5844 5841 5840 5837 5834 5834 5834 5832 5831 5829 5827 5826 5825 5825 5826 5826 5827 5828 5827 5826 5825 5824 5823 5822 5822 5821 5819 5818 5816 5814 5813 5812 5810 5809 5807 5806 5806
5845 5846 5845 5842 5838 5842 5838 5839 5840 5841 5840 5839 5841 5840 5836 5833 5831 5830 5830 5829 5827 5826 5824 5823 5822 5822 5822 5822 5822 5822 5821 5821 5820 5820 5819 5818 5817 5815 5814 5813 5811 5809 5807 5806 5805 5804 5802 5800 5800
5838 5839 5839 5836 5836 5836 5835 5834 5835 5837 5836 5836 5836 5835 5833 5831 5828 5826 5825 5823 5822 5822 5821 5820 5820 5819 5819 5819 5819 5818 5818 5816 5815 5814 5813 5811 5810 5809 5808 5806 5804 5802 5800 5798 5797 5796 5795 5794 5793
5831 5833 5831 5830 5831 5830 5829 5829 5830 5832 5832 5831 5831 5830 5828 5827 5825 5824 5822 5821 5820 5818 5817 5817 5817 5816 5816 5815 5815 5814 5813 5812 5810 5808 5806 5805 5803 5802 5800 5798 5797 5795 5793 5791 5789 5787 5787 5786 5785
5825 5827 5824 5824 5825 5826 5824 5824 5824 5824 5826 5825 5824 5824 5823 5822 5821 5821 5820 5818 5816 5815 5815 5813 5812 5811 5811 5810 5810 5809 5807 5806 5804 5802 5800 5798 5797 5795 5794 5792 5790 5787 5786 5783 5781 5779 5778 5776 5775
5818 5819 5818 5818 5819 5819 5818 5818 5817 5817 5818 5818 5817 5818 5816 5815 5816 5816 5815 5812 5811 5810 5809 5808 5807 5806 5805 5804 5803 5801 5799 5797 5796 5794 5793 5791 5789 5787 5785 5783 5781 5778 5776 5774 5772 5769 5767 5766 5765
5810 5812 5812 5812 5812 5811 5811 5810 5810 5810 5812 5811 5811 5811 5811 5811 5810 5810 5808 5806 5806 5805 5804 5803 5802 5801 5800 5798 5797 5795 5793 5790 5788 5786 5784 5782 5780 5777 5775 5772 5770 5768 5765 5763 5761 5759 5757 5755 5753
5803 5806 5806 5805 5807 5803 5802 5801 5801 5803 5805 5806 5805 5806 5807 5807 5806 5804 5803 5804 5804 5803 5801 5799 5798 5796 5793 5791 5789 5787 5785 5782 5780 5778 5776 5772 5769 5766 5763 5761 5758 5755 5753 5750 5748 5746 5745 5743 5741
5796 5799 5798 5799 5797 5796 5795 5792 5794 5794 5796 5798 5798 5799 5801 5803 5802 5801 5801 5801 5799 5798 5796 5793 5791 5789 5786 5784 5781 5778 5775 5772 5770 5767 5764 5761 5758 5755 5752 5749 5745 5742 5738 5736 5733 5731 5728 5726 5724
5789 5790 5792 5792 5788 5788 5788 5788 5787 5787 5789 5789 5791 5791 5794 5796 5794 5794 5794 5794 5793 5791 5790 5788 5785 5782 5779 5777 5774 5770 5767 5764 5761 5757 5754 5750 5747 5743 5739 5735 5731 5727 5722 5718 5715 5712 5709 5706 5704
5782 5782 5783 5783 5780 5778 5780 5783 5782 5782 5783 5783 5783 5785 5788 5789 5789 5788 5788 5787 5786 5785 5783 5780 5777 5773 5770 5768 5765 5761 5757 5753 5750 5746 5742 5738 5733 5728 5723 5718 5712 5708 5703 5698 5694 5691 5687 5684 5680
5774 5771 5773 5775 5776 5770 5771 5775 5774 5775 5777 5777 5777 5780 5782 5783 5782 5781 5781 5779 5777 5776 5774 5771 5768 5764 5760 5757 5754 5749 5745 5741 5736 5732 5727 5722 5716 5710 5704 5697 5690 5684 5679 5673 5668 5664 5659 5655 5653
5762 5762 5765 5767 5767 5763 5766 5767 5766 5767 5767 5770 5772 5774 5775 5776 5776 5774 5772 5770 5768 5766 5764 5760 5756 5753 5749 5746 5742 5736 5730 5725 5720 5715 5710 5704 5698 5691 5685 5679 5671 5663 5656 5649 5642 5637 5630 5623 5616
5755 5755 5757 5760 5759 5756 5757 5758 5760 5758 5762 5763 5763 5767 5768 5769 5769 5766 5764 5763 5759 5757 5755 5751 5746 5742 5738 5734 5729 5723 5719 5713 5707 5701 5695 5689 5682 5675 5667 5658 5650 5639 5630 5620 5611 5603 5596 5591 5584
5747 5747 5750 5751 5748 5747 5748 5749 5749 5752 5754 5757 5758 5759 5761 5760 5760 5757 5755 5753 5751 5747 5743 5741 5737 5733 5728 5724 5719 5713 5707 5701 5694 5686 5678 5671 5664 5657 5650 5640 5628 5618 5607 5598 5586 5575 5565 5562 5560
5737 5741 5740 5740 5741 5739 5738 5738 5742 5745 5747 5749 5750 5751 5750 5751 5749 5746 5743 5741 5739 5735 5732 5729 5725 5722 5718 5713 5707 5701 5694 5687 5680 5673 5665 5657 5648 5639 5631 5622 5609 5599 5589 5577 5566 5556 5547 5542 5544
5728 5730 5730 5730 5729 5730 5730 5728 5732 5736 5735 5739 5742 5742 5740 5741 5739 5736 5732 5731 5727 5723 5720 5717 5713 5708 5704 5699 5693 5687 5680 5673 5666 5659 5651 5642 5632 5624 5616 5608 5596 5586 5575 5565 5557 5549 5543 5540 5538
5717 5718 5719 5719 5721 5719 5720 5723 5726 5725 5731 5729 5730 5731 5730 5729 5726 5724 5721 5719 5715 5712 5709 5706 5702 5697 5692 5687 5681 5674 5668 5661 5654 5646 5638 5629 5620 5613 5606 5598 5587 5576 5567 5559 5551 5545 5539 5534 5531
5706 5708 5708 5708 5707 5710 5715 5714 5720 5715 5718 5722 5723 5722 5721 5719 5716 5713 5710 5707 5705 5702 5700 5696 5691 5686 5682 5677 5670 5663 5657 5650 5643 5635 5627 5620 5611 5605 5597 5589 5579 5569 5562 5555 5547 5541 5535 5529 5524
5698 5698 5697 5696 5698 5705 5703 5700 5709 5712 5711 5709 5711 5712 5712 5709 5706 5703 5699 5696 5694 5691 5689 5686 5680 5675 5672 5665 5659 5653 5646 5639 5632 5625 5619 5612 5605 5598 5590 5580 5571 5564 5557 5550 5543 5537 5531 5525 5518
5687 5687 5690 5687 5687 5688 5689 5692 5698 5700 5702 5702 5700 5699 5698 5697 5694 5690 5687 5686 5684 5681 5678 5674 5670 5666 5661 5655 5649 5643 5637 5630 5624 5617 5611 5605 5599 5592 5584 5575 5567 5558 5552 5546 5539 5533 5527 5521 5515
5676 5683 5678 5673 5674 5674 5676 5678 5682 5689 5690 5688 5686 5685 5685 5684 5682 5679 5678 5677 5673 5672 5669 5664 5660 5657 5651 5645 5640 5634 5627 5621 5615 5609 5604 5599 5594 5587 5580 5572 5565 5558 5550 5543 5537 5531 5526 5520 5514
5666 5668 5664 5666 5663 5662 5665 5669 5674 5676 5675 5674 5673 5674 5674 5672 5671 5670 5670 5667 5664 5661 5658 5654 5651 5645 5641 5636 5631 5625 5619 5613 5607 5602 5598 5593 5589 5584 5577 5570 5565 5558 5550 5542 5535 5530 5525 5520 5515
5649 5654 5653 5653 5653 5653 5655 5659 5661 5661 5661 5660 5662 5663 5662 5662 5661 5661 5660 5657 5653 5649 5647 5643 5640 5635 5631 5627 5621 5614 5609 5604 5599 5595 5592 5588 5584 5580 5574 5569 5564 5558 5551 5544 5536 5529 5525 5521 5516